Powrót do katalogu

COSMOS 2251 DEB

AktywnyVLEO
NORAD 33939·DEBRIS·🇷🇺 Russia

Wystrzelony Jun 16, 1993 z Plesetsk Cosmodrome

Loading…

Następne Przeloty (najbliższe 24 godziny)

TLE

ŚwieżeSource: Space-Track

Epoka: Sep 14, 2026, 04:09 UTC

1 33939U 93036EU  26257.17342980  .00258473  00000-0  47818-2 0  9993
2 33939  73.9879 222.6414 0013000 223.9101 136.1078 15.47922320929354

Śledź COSMOS 2251 DEB w czasie rzeczywistym z AllMySat

Download on the App Store